Weather History for KBCK - November, 2012

Change the Weather History Date:

Friday, November 23, 2012

  Actual Average (KLSE) Record (KLSE)
Temperature  
Mean Temperature 28 °F 32 °F  
Max Temperature 32 °F 39 °F 61 °F (1931)
Min Temperature 23 °F 24 °F -2 °F (1950)
Degree Days  
Heating Degree Days 38 33  
Month to date heating degree days 623  
Since 1 July heating degree days 1251  
Cooling Degree Days 0 0  
Month to date cooling degree days 0  
Year to date cooling degree days 782  
Moisture  
Dew Point 16 °F    
Average Humidity 63    
Maximum Humidity 74    
Minimum Humidity 55    
Precipitation  
Precipitation 0.00 in 0.06 in 1.42 in (1999)
Month to date precipitation 1.55  
Year to date precipitation 31.24  
Snow  
Snow 0.00 in 0.20 in 13.00 in (1991)
Month to date snowfall 2.4  
Since 1 July snowfall 2.6  
Snow Depth -    
Sea Level Pressure  
Sea Level Pressure 30.11 in    
Wind  
Wind Speed 16 mph (NW)    
Max Wind Speed 23 mph    
Max Gust Speed 37 mph    
Visibility 10 miles    
Events Snow    
T = Trace of Precipitation, MM = Missing Value Source: NWS Daily Summary

Daily Weather History Graph

Daily Weather History Graph

Search for Another Location

Airport or City:

Trip Planner

Search our weather history database for the weather conditions in past years. The results will help you decide how hot, cold, wet, or windy it might be!

Date:

Astronomy

Nov. 23, 2012 Rise Set
Actual Time 7:10 AM CST 4:29 PM CST
Civil Twilight 6:38 AM CST 5:01 PM CST
Nautical Twilight 6:02 AM CST 5:37 PM CST
Astronomical Twilight 5:27 AM CST 6:11 PM CST
Moon 1:52 PM CST (11/23) 2:20 AM CST (11/23)
Length of Visible Light 10h 23m
Length of Day
9h 19m
Waxing Gibbous, 80% of the Moon is Illuminated
Nov 23
Waxing Gibbous
Nov 28
Full
Dec 6
Last Quarter
Dec 13
New
Dec 19
First Quarter

Hourly Weather History & Observations

Time (CST) Temp. Windchill Dew Point Humidity Pressure Visibility Wind Dir Wind Speed Gust Speed Precip Events Conditions
12:15 AM 32.0 °F 20.1 °F 23.0 °F 69% 29.86 in 10.0 mi West 19.6 mph 32.2 mph N/A   Overcast
12:35 AM 32.0 °F 19.2 °F 23.0 °F 69% 29.86 in 10.0 mi West 23.0 mph 36.8 mph N/A   Overcast
12:55 AM 32.0 °F 19.2 °F 21.2 °F 64% 29.86 in 10.0 mi West 23.0 mph 34.5 mph N/A   Overcast
1:15 AM 32.0 °F 19.5 °F 21.2 °F 64% 29.87 in 10.0 mi West 21.9 mph 34.5 mph N/A   Overcast
1:35 AM 30.2 °F 17.4 °F 19.4 °F 64% 29.88 in 10.0 mi West 20.7 mph 34.5 mph N/A   Overcast
1:55 AM 30.2 °F 17.8 °F 19.4 °F 64% 29.89 in 10.0 mi WNW 19.6 mph 29.9 mph N/A   Overcast
2:15 AM 30.2 °F 21.3 °F 19.4 °F 64% 29.89 in 10.0 mi WNW 10.4 mph 23.0 mph N/A   Overcast
2:55 AM 28.4 °F 17.5 °F 19.4 °F 69% 29.91 in 10.0 mi WNW 13.8 mph 23.0 mph N/A   Overcast
3:15 AM 28.4 °F 15.1 °F 15.8 °F 59% 29.92 in 10.0 mi WNW 20.7 mph 31.1 mph N/A   Overcast
3:35 AM 28.4 °F 15.8 °F 17.6 °F 64% 29.92 in 10.0 mi WNW 18.4 mph 27.6 mph N/A   Overcast
3:55 AM 28.4 °F 17.0 °F 17.6 °F 64% 29.92 in 10.0 mi WNW 15.0 mph 27.6 mph N/A   Overcast
4:15 AM 26.6 °F 15.7 °F 17.6 °F 69% 29.93 in 7.0 mi WNW 12.7 mph 25.3 mph N/A Snow Light Snow
4:55 AM 26.6 °F 14.3 °F 19.4 °F 74% 29.94 in 4.0 mi West 16.1 mph 26.5 mph N/A Snow Light Snow
5:15 AM 26.6 °F 15.7 °F 17.6 °F 69% 29.95 in 10.0 mi WNW 12.7 mph 31.1 mph N/A Snow Light Snow
5:35 AM 26.6 °F 13.8 °F 15.8 °F 64% 29.95 in 10.0 mi WNW 17.3 mph 29.9 mph N/A   Overcast
5:55 AM 26.6 °F 13.4 °F 15.8 °F 64% 29.96 in 10.0 mi WNW 18.4 mph 31.1 mph N/A   Overcast
6:15 AM 26.6 °F 14.3 °F 15.8 °F 64% 29.98 in 10.0 mi WNW 16.1 mph 25.3 mph N/A   Overcast
6:35 AM 26.6 °F 15.7 °F 14.0 °F 59% 29.99 in 10.0 mi WNW 12.7 mph 25.3 mph N/A   Overcast
6:55 AM 26.6 °F 12.4 °F 14.0 °F 59% 30.00 in 10.0 mi West 21.9 mph 33.4 mph N/A   Overcast
7:15 AM 26.6 °F 12.4 °F 14.0 °F 59% 30.01 in 10.0 mi WNW 21.9 mph 28.8 mph N/A   Overcast
7:35 AM 24.8 °F 11.5 °F 14.0 °F 64% 30.03 in 10.0 mi WNW 17.3 mph 29.9 mph N/A   Overcast
7:55 AM 24.8 °F 11.9 °F 14.0 °F 64% 30.04 in 10.0 mi WNW 16.1 mph 26.5 mph N/A Snow Light Snow
8:15 AM 24.8 °F 13.4 °F 15.8 °F 69% 30.04 in 10.0 mi WNW 12.7 mph 21.9 mph N/A Snow Light Snow
8:35 AM 24.8 °F 12.9 °F 15.8 °F 69% 30.06 in 7.0 mi WNW 13.8 mph 21.9 mph N/A Snow Light Snow
8:55 AM 26.6 °F 15.2 °F 17.6 °F 69% 30.07 in 7.0 mi WNW 13.8 mph 27.6 mph N/A Snow Light Snow
9:15 AM 26.6 °F 15.2 °F 17.6 °F 69% 30.07 in 7.0 mi WNW 13.8 mph 24.2 mph N/A Snow Light Snow
9:35 AM 26.6 °F 14.3 °F 17.6 °F 69% 30.08 in 7.0 mi NW 16.1 mph 24.2 mph N/A Snow Light Snow
9:55 AM 26.6 °F 14.3 °F 14.0 °F 59% 30.09 in 10.0 mi NW 16.1 mph 29.9 mph N/A   Overcast
10:15 AM 26.6 °F 15.2 °F 14.0 °F 59% 30.11 in 10.0 mi NW 13.8 mph 32.2 mph N/A Snow Light Snow
10:35 AM 26.6 °F 14.3 °F 14.0 °F 59% 30.12 in 10.0 mi NW 16.1 mph 23.0 mph N/A   Overcast
11:15 AM 26.6 °F 13.4 °F 14.0 °F 59% 30.14 in 10.0 mi WNW 18.4 mph 27.6 mph N/A Snow Light Snow
11:35 AM 26.6 °F 14.7 °F 15.8 °F 64% 30.14 in 10.0 mi NW 15.0 mph 24.2 mph N/A Snow Light Snow
12:15 PM 26.6 °F 15.2 °F 14.0 °F 59% 30.16 in 10.0 mi NW 13.8 mph 23.0 mph N/A   Overcast
12:35 PM 26.6 °F 14.7 °F 14.0 °F 59% 30.16 in 10.0 mi WNW 15.0 mph 25.3 mph N/A   Overcast
12:55 PM 28.4 °F 18.0 °F 15.8 °F 59% 30.16 in 10.0 mi WNW 12.7 mph 20.7 mph N/A   Overcast
1:15 PM 28.4 °F 16.2 °F 15.8 °F 59% 30.17 in 10.0 mi NW 17.3 mph 24.2 mph N/A   Overcast
1:35 PM 28.4 °F 16.2 °F 15.8 °F 59% 30.17 in 10.0 mi NW 17.3 mph 25.3 mph N/A   Overcast
1:55 PM 28.4 °F 17.5 °F 15.8 °F 59% 30.18 in 10.0 mi NW 13.8 mph 23.0 mph N/A   Overcast
2:15 PM 28.4 °F 17.0 °F 15.8 °F 59% 30.19 in 10.0 mi WNW 15.0 mph 21.9 mph N/A   Overcast
2:35 PM 28.4 °F 19.1 °F 15.8 °F 59% 30.20 in 10.0 mi NW 10.4 mph 18.4 mph N/A   Overcast
2:55 PM 28.4 °F 17.0 °F 15.8 °F 59% 30.21 in 10.0 mi NW 15.0 mph 21.9 mph N/A   Overcast
3:15 PM 28.4 °F 17.0 °F 15.8 °F 59% 30.21 in 10.0 mi WNW 15.0 mph 23.0 mph N/A   Overcast
3:35 PM 28.4 °F 20.4 °F 14.0 °F 55% 30.22 in 10.0 mi NW 8.1 mph 24.2 mph N/A   Overcast
4:15 PM 28.4 °F 17.5 °F 15.8 °F 59% 30.23 in 10.0 mi NW 13.8 mph 18.4 mph N/A   Overcast
4:35 PM 26.6 °F 16.2 °F 15.8 °F 64% 30.24 in 10.0 mi NNW 11.5 mph 19.6 mph N/A   Overcast
4:55 PM 28.4 °F 18.0 °F 15.8 °F 59% 30.24 in 10.0 mi WNW 12.7 mph 19.6 mph N/A   Overcast
5:15 PM 26.6 °F 16.8 °F 15.8 °F 64% 30.25 in 10.0 mi NW 10.4 mph 18.4 mph N/A   Overcast
5:55 PM 26.6 °F 16.2 °F 15.8 °F 64% 30.26 in 10.0 mi WNW 11.5 mph 19.6 mph N/A   Overcast
6:15 PM 26.6 °F 16.8 °F 15.8 °F 64% 30.26 in 10.0 mi NW 10.4 mph - N/A   Overcast
6:35 PM 26.6 °F 15.2 °F 14.0 °F 59% 30.26 in 10.0 mi NNW 13.8 mph 20.7 mph N/A   Overcast
6:55 PM 26.6 °F 15.7 °F 14.0 °F 59% 30.27 in 10.0 mi NW 12.7 mph 20.7 mph N/A   Overcast
7:15 PM 26.6 °F 16.2 °F 14.0 °F 59% 30.27 in 10.0 mi WNW 11.5 mph 20.7 mph N/A   Overcast
7:35 PM 26.6 °F 17.5 °F 14.0 °F 59% 30.27 in 10.0 mi NNW 9.2 mph 19.6 mph N/A   Overcast
7:55 PM 26.6 °F 16.2 °F 14.0 °F 59% 30.26 in 10.0 mi NNW 11.5 mph 17.3 mph N/A   Overcast
8:15 PM 26.6 °F 18.2 °F 14.0 °F 59% 30.27 in 10.0 mi NNW 8.1 mph - N/A   Overcast
8:55 PM 26.6 °F 16.2 °F 14.0 °F 59% 30.26 in 10.0 mi NW 11.5 mph 18.4 mph N/A   Overcast
9:15 PM 26.6 °F 16.8 °F 14.0 °F 59% 30.26 in 10.0 mi NNW 10.4 mph - N/A   Overcast
9:35 PM 26.6 °F 16.8 °F 14.0 °F 59% 30.26 in 10.0 mi NW 10.4 mph - N/A   Overcast
9:55 PM 26.6 °F 15.2 °F 14.0 °F 59% 30.26 in 10.0 mi North 13.8 mph 20.7 mph N/A   Overcast
10:15 PM 24.8 °F 17.9 °F 14.0 °F 64% 30.26 in 10.0 mi NNW 5.8 mph - N/A   Overcast
10:35 PM 24.8 °F 14.0 °F 14.0 °F 64% 30.27 in 10.0 mi NW 11.5 mph 17.3 mph N/A   Overcast
10:55 PM 24.8 °F 14.6 °F 14.0 °F 64% 30.27 in 10.0 mi NW 10.4 mph - N/A   Overcast
11:15 PM 23.0 °F 14.7 °F 14.0 °F 68% 30.27 in 10.0 mi WNW 6.9 mph 16.1 mph N/A   Overcast
11:55 PM 23.0 °F 14.7 °F 14.0 °F 68% 30.27 in 10.0 mi NW 6.9 mph - N/A   Overcast